Change the Weather History Date:

Monday, April 1, 2013

  Actual Average (KLAS) Record (KLAS)
Temperature  
Mean Temperature 65 °F 63 °F  
Max Temperature 75 °F 74 °F 92 °F (1966)
Min Temperature 55 °F 52 °F 35 °F (1948)
Degree Days  
Heating Degree Days 0 4  
Month to date heating degree days 4  
Since 1 July heating degree days 1884  
Cooling Degree Days 0 2  
Month to date cooling degree days 2  
Year to date cooling degree days 33  
Growing Degree Days 15 (Base 50)    
Moisture  
Dew Point 32 °F    
Average Humidity 31    
Maximum Humidity 51    
Minimum Humidity 17    
Precipitation  
Precipitation 0.00 in 0.01 in 0.37 in (1940)
Month to date precipitation 0.01  
Year to date precipitation 1.75  
Snow  
Snow 0.00 in 0.00 in 0.00 in (2013)
Month to date snowfall 0.0  
Since 1 July snowfall 0.3  
Snow Depth -    
Sea Level Pressure  
Sea Level Pressure 29.94 in    
Wind  
Wind Speed 13 mph (SW)    
Max Wind Speed 25 mph    
Max Gust Speed 29 mph    
Visibility 10 miles    
Events Thunderstorm    
T = Trace of Precipitation, MM = Missing Value Source: NWS Daily Summary

Daily Weather History Graph

Daily Weather History Graph

Search for Another Location

Airport or City:

Trip Planner

Search our weather history database for the weather conditions in past years. The results will help you decide how hot, cold, wet, or windy it might be!

Date:

Astronomy

Apr. 01, 2013 Rise Set
Actual Time 6:25 AM PDT 7:01 PM PDT
Civil Twilight 5:59 AM PDT 7:27 PM PDT
Nautical Twilight 5:29 AM PDT 7:57 PM PDT
Astronomical Twilight 4:58 AM PDT 8:29 PM PDT
Moon 12:05 AM PDT 10:24 AM PDT
Length of Visible Light 13h 27m
Length of Day
12h 36m
Waning Gibbous, 66% of the Moon is Illuminated
Apr 1
Waning Gibbous
Apr 2
Last Quarter
Apr 10
New
Apr 18
First Quarter
Apr 25
Full

Hourly Weather History & Observations

Time (PDT) Temp. Dew Point Humidity Pressure Visibility Wind Dir Wind Speed Gust Speed Precip Events Conditions
12:15 AM 64.4 °F 37.4 °F 37% 29.90 in 10.0 mi SW 16.1 mph 20.7 mph N/A   Clear
12:35 AM 62.6 °F 39.2 °F 42% 29.90 in 10.0 mi SW 17.3 mph 21.9 mph N/A   Clear
1:15 AM 62.6 °F 39.2 °F 42% 29.90 in 10.0 mi SW 17.3 mph 23.0 mph N/A   Clear
1:35 AM 60.8 °F 39.2 °F 45% 29.90 in 10.0 mi SW 19.6 mph 23.0 mph N/A   Clear
1:55 AM 62.6 °F 37.4 °F 39% 29.90 in 10.0 mi SW 23.0 mph 27.6 mph N/A   Clear
2:15 AM 62.6 °F 37.4 °F 39% 29.90 in 10.0 mi WSW 25.3 mph - N/A   Clear
2:35 AM 60.8 °F 37.4 °F 42% 29.92 in 10.0 mi SW 21.9 mph 28.8 mph N/A   Clear
2:55 AM 59.0 °F 37.4 °F 45% 29.92 in 10.0 mi WSW 18.4 mph 23.0 mph N/A   Clear
3:15 AM 59.0 °F 37.4 °F 45% 29.92 in 10.0 mi WSW 18.4 mph 21.9 mph N/A   Clear
3:35 AM 59.0 °F 37.4 °F 45% 29.93 in 10.0 mi WSW 15.0 mph 21.9 mph N/A   Clear
3:55 AM 57.2 °F 37.4 °F 48% 29.93 in 10.0 mi SW 12.7 mph 18.4 mph N/A   Clear
4:15 AM 57.2 °F 37.4 °F 48% 29.94 in 10.0 mi SW 6.9 mph - N/A   Clear
4:35 AM 57.2 °F 37.4 °F 48% 29.94 in 10.0 mi SSW 12.7 mph - N/A   Clear
4:55 AM 55.4 °F 37.4 °F 51% 29.94 in 10.0 mi SSW 10.4 mph - N/A   Clear
5:15 AM 55.4 °F 37.4 °F 51% 29.94 in 10.0 mi South 11.5 mph - N/A   Clear
5:35 AM 55.4 °F 37.4 °F 51% 29.94 in 10.0 mi South 9.2 mph - N/A   Clear
5:55 AM 55.4 °F 37.4 °F 51% 29.94 in 10.0 mi South 6.9 mph - N/A   Clear
6:15 AM 55.4 °F 35.6 °F 47% 29.94 in 10.0 mi SSW 13.8 mph 21.9 mph N/A   Clear
6:35 AM 55.4 °F 35.6 °F 47% 29.94 in 10.0 mi South 18.4 mph 26.5 mph N/A   Clear
6:55 AM 55.4 °F 35.6 °F 47% 29.94 in 10.0 mi SSW 17.3 mph - N/A   Clear
7:15 AM 57.2 °F 33.8 °F 41% 29.95 in 10.0 mi SSW 17.3 mph 25.3 mph N/A   Clear
7:35 AM 57.2 °F 33.8 °F 41% 29.97 in 10.0 mi SSW 12.7 mph - N/A   Clear
7:55 AM 59.0 °F 33.8 °F 39% 29.98 in 10.0 mi SW 11.5 mph - N/A   Clear
8:15 AM 59.0 °F 33.8 °F 39% 29.98 in 10.0 mi SW 13.8 mph - N/A   Clear
8:35 AM 60.8 °F 35.6 °F 39% 29.99 in 10.0 mi SSW 11.5 mph - N/A   Clear
8:55 AM 62.6 °F 35.6 °F 37% 29.99 in 10.0 mi SSW 13.8 mph - N/A Thunderstorm Clear
9:15 AM 62.6 °F 33.8 °F 34% 29.99 in 10.0 mi SW 10.4 mph - N/A   Clear
9:35 AM 64.4 °F 32.0 °F 30% 29.99 in 10.0 mi SSW 13.8 mph - N/A Thunderstorm Clear
9:55 AM 66.2 °F 32.0 °F 28% 29.99 in 10.0 mi WSW 10.4 mph - N/A   Clear
10:15 AM 66.2 °F 32.0 °F 28% 29.99 in 10.0 mi SSW 11.5 mph - N/A   Clear
10:35 AM 66.2 °F 32.0 °F 28% 30.00 in 10.0 mi SSW 10.4 mph 16.1 mph N/A   Clear
10:55 AM 66.2 °F 32.0 °F 28% 30.00 in 10.0 mi WSW 6.9 mph - N/A   Clear
11:15 AM 68.0 °F 32.0 °F 26% 29.99 in 10.0 mi East 3.5 mph 16.1 mph N/A   Clear
11:35 AM 68.0 °F 32.0 °F 26% 29.99 in 10.0 mi SSW 9.2 mph - N/A   Clear
12:15 PM 69.8 °F 32.0 °F 25% 29.98 in 10.0 mi SSW 5.8 mph 16.1 mph N/A   Clear
12:35 PM 71.6 °F 32.0 °F 23% 29.98 in 10.0 mi SSW 11.5 mph - N/A   Clear
12:55 PM 71.6 °F 30.2 °F 22% 29.97 in 10.0 mi SSW 11.5 mph 16.1 mph N/A   Clear
1:15 PM 71.6 °F 28.4 °F 20% 29.97 in 10.0 mi South 10.4 mph - N/A Thunderstorm Clear
1:35 PM 71.6 °F 28.4 °F 20% 29.96 in 10.0 mi SSW 5.8 mph - N/A   Clear
1:55 PM 71.6 °F 30.2 °F 22% 29.95 in 10.0 mi SSE 6.9 mph - N/A   Clear
2:15 PM 73.4 °F 32.0 °F 22% 29.94 in 10.0 mi NE 4.6 mph - N/A   Clear
2:35 PM 73.4 °F 32.0 °F 22% 29.93 in 10.0 mi South 10.4 mph - N/A   Clear
2:55 PM 75.2 °F 28.4 °F 18% 29.91 in 10.0 mi SSW 13.8 mph 24.2 mph N/A   Partly Cloudy
3:15 PM 75.2 °F 28.4 °F 18% 29.91 in 10.0 mi SSW 17.3 mph 20.7 mph N/A   Clear
3:35 PM 75.2 °F 26.6 °F 17% 29.91 in 10.0 mi West 15.0 mph 19.6 mph N/A   Clear
3:55 PM 75.2 °F 26.6 °F 17% 29.90 in 10.0 mi WNW 12.7 mph 16.1 mph N/A   Clear
4:15 PM 75.2 °F 26.6 °F 17% 29.90 in 10.0 mi WSW 15.0 mph - N/A   Clear
4:35 PM 73.4 °F 26.6 °F 18% 29.90 in 10.0 mi SW 8.1 mph - N/A Thunderstorm Clear
4:55 PM 73.4 °F 28.4 °F 19% 29.90 in 10.0 mi NW 10.4 mph 23.0 mph N/A   Clear
5:15 PM 73.4 °F 28.4 °F 19% 29.90 in 10.0 mi WNW 5.8 mph - N/A   Partly Cloudy
5:35 PM 73.4 °F 26.6 °F 18% 29.90 in 10.0 mi Calm Calm - N/A   Partly Cloudy
5:55 PM 71.6 °F 26.6 °F 19% 29.90 in 10.0 mi NW 9.2 mph - N/A Thunderstorm Partly Cloudy
6:15 PM 71.6 °F 26.6 °F 19% 29.90 in 10.0 mi NW 8.1 mph - N/A Thunderstorm Clear
6:55 PM 68.0 °F 26.6 °F 21% 29.90 in 10.0 mi NNW 5.8 mph - N/A   Clear
7:15 PM 68.0 °F 24.8 °F 20% 29.91 in 10.0 mi NW 5.8 mph - N/A   Clear
7:35 PM 66.2 °F 26.6 °F 23% 29.91 in 10.0 mi NNW 3.5 mph - N/A Thunderstorm Clear
7:55 PM 66.2 °F 24.8 °F 21% 29.91 in 10.0 mi Calm Calm - N/A   Clear
8:15 PM 64.4 °F 26.6 °F 24% 29.92 in 10.0 mi WSW 6.9 mph - N/A   Clear
8:35 PM 66.2 °F 26.6 °F 23% 29.92 in 10.0 mi West 6.9 mph - N/A   Clear
8:55 PM 66.2 °F 26.6 °F 23% 29.92 in 10.0 mi WNW 10.4 mph - N/A   Clear
9:15 PM 66.2 °F 26.6 °F 23% 29.93 in 10.0 mi NW 8.1 mph - N/A   Clear
9:35 PM 64.4 °F 26.6 °F 24% 29.93 in 10.0 mi NW 6.9 mph - N/A   Clear
9:55 PM 64.4 °F 26.6 °F 24% 29.93 in 10.0 mi NW 4.6 mph - N/A   Clear
10:15 PM 64.4 °F 26.6 °F 24% 29.93 in 10.0 mi Calm Calm - N/A   Clear
10:35 PM 64.4 °F 26.6 °F 24% 29.93 in 10.0 mi Calm Calm - N/A   Clear
10:55 PM 62.6 °F 26.6 °F 26% 29.93 in 10.0 mi Calm Calm - N/A   Clear
11:15 PM 59.0 °F 26.6 °F 29% 29.93 in 10.0 mi WNW 3.5 mph - N/A   Clear
11:35 PM 62.6 °F 26.6 °F 26% 29.94 in 10.0 mi NNW 8.1 mph - N/A   Clear
11:55 PM 62.6 °F 28.4 °F 27% 29.94 in 10.0 mi NNE 3.5 mph - N/A   Clear